Flag for U.S.A. Weather past 2 weeks in Santa Rosa, California, U.S.A.

Now
40 °F

Clear.


Feels Like: 35 °F
Forecast: 39 / 72 °F
Wind: 7 mph from Northwest

Location: Santa Rosa Sonoma County Airport

Current Time: Mar 6, 2015 at 3:36:55 AM

Latest Report: Mar 6, 2015 at 2:53 AM


Visibility: 10 mi

Pressure: 30.26 "Hg

Humidity: 93%

Dew point: 38 °F

Location of Santa RosaLocation

Historic Weather in Santa Rosa — Graph

°F

Santa Rosa temperature yesterday

Maximum temperature yesterday: 70 °F (at 1:53 PM)
Minimum temperature yesterday: 37 °F (at 6:53 AM)
Average temperature yesterday: 53 °F

Past Weeks' High & Low Weather Summary

 TemperatureHumidityPressure
High72 °F (Feb 26, 1:53 PM)100% (Feb 19, 3:53 AM)30.34 "Hg (Feb 19, 3:53 AM)
Low31 °F (Feb 24, 5:53 AM)16% (Feb 23, 6:53 AM)29.69 "Hg (Feb 28, 3:53 AM)
Average51 °F71%29.99 "Hg
* Reported Feb 19 1:53 AM — Mar 6 1:53 AM, Santa Rosa, Weather by CustomWeather, © 2015

Note: Actual official high and low records may vary slightly from our data, if they occured in-between our weather recording intervals... More about our weather records

Advertising

Santa Rosa weather history for previous 24 hours

 ConditionsComfort  
Time TempWeatherWind HumidityBarometerVisibility
1:53 AM
Fri, Mar 6
41 °FClear.6 mph93%30.27 "Hg10 mi
12:53 AM43 °FClear.3 mph89%30.27 "Hg10 mi
11:53 PM
Thu, Mar 5
44 °FClear.3 mph89%30.27 "Hg10 mi
10:53 PM47 °FClear.No wind80%30.28 "Hg10 mi
9:53 PM49 °FClear.No wind74%30.28 "Hg10 mi
8:53 PM53 °FClear.No wind64%30.27 "Hg10 mi
7:53 PM58 °FClear.No wind50%30.26 "Hg10 mi
6:53 PM61 °FClear.3 mph44%30.25 "Hg10 mi
5:53 PM64 °FSunny.5 mph41%30.24 "Hg10 mi
4:53 PM69 °FSunny.5 mph33%30.24 "Hg10 mi
3:53 PM69 °FSunny.8 mph36%30.24 "Hg10 mi
2:53 PM69 °FSunny.3 mph36%30.24 "Hg10 mi
1:53 PM70 °FSunny.6 mph37%30.26 "Hg10 mi
12:53 PM68 °FSunny.3 mph38%30.27 "Hg10 mi
11:53 AM64 °FSunny.3 mph43%30.30 "Hg10 mi
10:53 AM61 °FSunny.No wind48%30.31 "Hg10 mi
9:53 AM57 °FSunny.3 mph58%30.32 "Hg10 mi
8:53 AM50 °FSunny.3 mph71%30.32 "Hg10 mi
7:53 AM43 °FSunny.3 mph86%30.30 "Hg10 mi
6:53 AM37 °FSunny.7 mph93%30.28 "Hg10 mi
5:53 AM38 °FClear.No wind90%30.26 "Hg10 mi
4:53 AM38 °FClear.5 mph90%30.24 "Hg10 mi
3:53 AM40 °FClear.No wind89%30.23 "Hg10 mi
Weather by CustomWeather, © 2015

See weather overviewHow to use our weather pages